timestamp,wind_dir_avg,wind_spd_avg,wind_spd_max_dir,wind_spd_gust,battery_voltage,lat,long
2022-06-16 00:04:01+00:00,1.0,0.78,358.0,1.15,13.13,47.59359,-54.27349
2022-06-16 00:14:00+00:00,43.0,0.96,49.0,1.15,12.65,47.59359,-54.27349
2022-06-16 00:24:00+00:00,26.0,1.22,26.0,1.45,12.65,47.59359,-54.27349
2022-06-16 00:34:00+00:00,51.0,0.93,39.0,1.3,12.65,47.59359,-54.27349
2022-06-16 00:44:00+00:00,30.0,1.24,25.0,1.44,12.65,47.59359,-54.27349
2022-06-16 00:54:00+00:00,58.0,0.76,53.0,1.01,12.65,47.59359,-54.27349
2022-06-16 01:04:00+00:00,339.0,0.84,314.0,1.13,12.65,47.59359,-54.27349
2022-06-16 01:14:00+00:00,308.0,1.56,310.0,1.67,12.49,47.59359,-54.27349
2022-06-16 01:24:00+00:00,277.0,1.36,271.0,1.63,12.49,47.59359,-54.27349
2022-06-16 01:34:00+00:00,267.0,2.23,266.0,2.34,12.49,47.59359,-54.27349
2022-06-16 01:44:00+00:00,276.0,2.2,279.0,2.47,12.49,47.59359,-54.27349
2022-06-16 01:54:00+00:00,278.0,1.83,278.0,1.89,12.49,47.59359,-54.27349
2022-06-16 02:04:00+00:00,234.0,1.08,235.0,1.18,12.49,47.59359,-54.27349
2022-06-16 02:14:00+00:00,238.0,0.49,236.0,0.58,12.41,47.59359,-54.27349
2022-06-16 02:24:00+00:00,272.0,0.74,270.0,0.84,12.41,47.59359,-54.27349
2022-06-16 02:34:00+00:00,101.0,0.75,103.0,1.32,12.41,47.59359,-54.27349
2022-06-16 02:44:00+00:00,178.0,0.45,165.0,0.65,12.41,47.59359,-54.27349
2022-06-16 02:54:00+00:00,188.0,0.64,180.0,0.77,12.41,47.59359,-54.27349
2022-06-16 03:04:00+00:00,97.0,0.44,93.0,0.57,12.41,47.59359,-54.27349
2022-06-16 03:14:01+00:00,14.0,0.39,17.0,0.5,12.41,47.59359,-54.27349
2022-06-16 03:24:01+00:00,33.0,0.99,36.0,1.12,12.41,47.59359,-54.27349
2022-06-16 03:34:01+00:00,61.0,1.3,65.0,1.61,12.41,47.59359,-54.27349
2022-06-16 03:44:01+00:00,90.0,0.9,91.0,1.16,12.41,47.59359,-54.27349
2022-06-16 03:54:01+00:00,123.0,0.62,134.0,0.86,12.41,47.59359,-54.27349
2022-06-16 04:04:01+00:00,108.0,1.04,110.0,1.21,12.41,47.59359,-54.27349
2022-06-16 04:14:00+00:00,93.0,0.9,91.0,1.18,12.41,47.59359,-54.27349
2022-06-16 04:24:00+00:00,87.0,1.09,82.0,1.5,12.41,47.59359,-54.27349
2022-06-16 04:34:00+00:00,125.0,1.57,129.0,1.69,12.41,47.59359,-54.27349
2022-06-16 04:44:00+00:00,127.0,1.05,133.0,1.26,12.41,47.59359,-54.27349
2022-06-16 04:54:00+00:00,215.0,0.2,239.0,0.34,12.41,47.59359,-54.27349
2022-06-16 05:04:00+00:00,253.0,1.35,254.0,1.43,12.41,47.59359,-54.27349
2022-06-16 05:14:00+00:00,276.0,2.17,278.0,2.26,12.33,47.59359,-54.27349
2022-06-16 05:24:00+00:00,262.0,2.44,263.0,2.61,12.33,47.59359,-54.27349
2022-06-16 05:34:00+00:00,256.0,3.2,256.0,3.4,12.33,47.59359,-54.27349
2022-06-16 05:44:00+00:00,282.0,2.1,282.0,2.33,12.33,47.59359,-54.27349
2022-06-16 05:54:00+00:00,301.0,1.87,303.0,1.99,12.33,47.59359,-54.27349
2022-06-16 06:04:00+00:00,324.0,0.93,321.0,1.01,12.33,47.59359,-54.27349
2022-06-16 06:14:00+00:00,167.0,0.59,159.0,0.76,12.33,47.59359,-54.27349
2022-06-16 06:24:00+00:00,128.0,1.1,140.0,1.36,12.33,47.59359,-54.27349
2022-06-16 06:34:00+00:00,159.0,1.79,160.0,1.95,12.33,47.59359,-54.27349
2022-06-16 06:44:00+00:00,151.0,1.57,150.0,1.77,12.33,47.59359,-54.27349
2022-06-16 06:54:00+00:00,180.0,1.01,184.0,1.18,12.33,47.59359,-54.27349
2022-06-16 07:04:00+00:00,204.0,1.04,204.0,1.24,12.33,47.59359,-54.27349
2022-06-16 07:14:01+00:00,237.0,1.04,238.0,1.43,12.25,47.59359,-54.27349
2022-06-16 07:24:01+00:00,71.0,0.45,76.0,0.62,12.25,47.59359,-54.27349
2022-06-16 07:34:01+00:00,101.0,0.36,122.0,0.51,12.25,47.59359,-54.27349
2022-06-16 07:44:01+00:00,105.0,1.62,109.0,1.86,12.25,47.59359,-54.27349
2022-06-16 07:54:01+00:00,124.0,1.89,119.0,2.1,12.25,47.59359,-54.27349
2022-06-16 08:04:01+00:00,130.0,1.45,134.0,1.78,12.25,47.59359,-54.27349
2022-06-16 08:14:01+00:00,135.0,1.83,139.0,2.09,12.33,47.59359,-54.27349
2022-06-16 08:24:01+00:00,161.0,1.57,162.0,1.77,12.33,47.59359,-54.27349
2022-06-16 08:34:01+00:00,171.0,2.23,176.0,2.44,12.33,47.59359,-54.27349
2022-06-16 08:44:01+00:00,205.0,2.5,206.0,2.78,12.33,47.59359,-54.27349
2022-06-16 08:54:01+00:00,207.0,3.29,212.0,3.76,12.33,47.59359,-54.27349
2022-06-16 09:04:01+00:00,223.0,3.37,224.0,3.64,12.33,47.59359,-54.27349
2022-06-16 09:14:00+00:00,230.0,3.02,231.0,3.37,12.89,47.59359,-54.27349
2022-06-16 09:24:00+00:00,224.0,3.11,228.0,3.4,12.89,47.59359,-54.27349
2022-06-16 09:34:00+00:00,217.0,3.26,222.0,3.72,12.89,47.59359,-54.27349
2022-06-16 09:44:00+00:00,208.0,2.44,200.0,2.76,12.89,47.59359,-54.27349
2022-06-16 09:54:00+00:00,215.0,2.16,221.0,2.45,12.89,47.59359,-54.27349
2022-06-16 10:04:00+00:00,221.0,2.77,222.0,3.22,12.89,47.59359,-54.27349
2022-06-16 10:14:01+00:00,214.0,3.71,214.0,4.09,13.29,47.59359,-54.27349
2022-06-16 10:24:01+00:00,203.0,3.72,204.0,4.66,13.29,47.59359,-54.27349
2022-06-16 10:34:01+00:00,196.0,4.39,201.0,4.95,13.29,47.59359,-54.27349
2022-06-16 10:44:01+00:00,209.0,4.78,207.0,5.33,13.29,47.59359,-54.27349
2022-06-16 10:54:01+00:00,206.0,5.07,205.0,5.69,13.29,47.59359,-54.27349
2022-06-16 11:04:01+00:00,212.0,6.11,211.0,6.79,13.29,47.59359,-54.27349
2022-06-16 11:14:01+00:00,209.0,5.91,208.0,6.49,13.53,47.59359,-54.27349
2022-06-16 11:24:01+00:00,204.0,6.24,203.0,6.99,13.53,47.59359,-54.27349
2022-06-16 11:34:01+00:00,202.0,6.45,199.0,7.29,13.53,47.59359,-54.27349
2022-06-16 11:44:01+00:00,200.0,7.08,208.0,7.8,13.53,47.59359,-54.27349
2022-06-16 11:54:01+00:00,199.0,7.75,202.0,8.68,13.53,47.59359,-54.27349
2022-06-16 12:04:01+00:00,201.0,7.31,201.0,8.16,13.53,47.59359,-54.27349
2022-06-16 12:14:00+00:00,202.0,7.51,200.0,8.28,13.76,47.59359,-54.27349
2022-06-16 12:24:00+00:00,203.0,7.75,206.0,8.64,13.76,47.59359,-54.27349
2022-06-16 12:34:00+00:00,202.0,7.85,200.0,8.79,13.76,47.59359,-54.27349
2022-06-16 12:44:00+00:00,201.0,8.08,201.0,8.86,13.76,47.59359,-54.27349
2022-06-16 12:54:00+00:00,205.0,8.48,207.0,9.54,13.76,47.59359,-54.27349
2022-06-16 13:04:00+00:00,203.0,7.95,205.0,8.81,13.76,47.59359,-54.27349
2022-06-16 13:14:01+00:00,210.0,8.79,205.0,10.09,14.32,47.59359,-54.27349
2022-06-16 13:24:01+00:00,209.0,8.81,209.0,10.48,14.32,47.59359,-54.27349
2022-06-16 13:34:01+00:00,208.0,9.19,206.0,10.28,14.32,47.59359,-54.27349
2022-06-16 13:44:01+00:00,205.0,9.21,200.0,10.57,14.32,47.59359,-54.27349
2022-06-16 13:54:01+00:00,206.0,9.5,203.0,10.9,14.32,47.59359,-54.27349
2022-06-16 14:04:01+00:00,201.0,9.37,202.0,10.32,14.32,47.59359,-54.27349
2022-06-16 14:14:00+00:00,203.0,9.36,206.0,10.7,14.24,47.59359,-54.27349
2022-06-16 14:24:00+00:00,207.0,9.58,201.0,10.95,14.24,47.59359,-54.27349
2022-06-16 14:34:00+00:00,209.0,9.04,207.0,10.24,14.24,47.59359,-54.27349
2022-06-16 14:44:00+00:00,208.0,9.49,211.0,10.98,14.24,47.59359,-54.27349
2022-06-16 14:54:00+00:00,206.0,9.44,205.0,11.55,14.24,47.59359,-54.27349
2022-06-16 15:04:00+00:00,204.0,9.14,203.0,10.52,14.24,47.59359,-54.27349
2022-06-16 15:14:00+00:00,204.0,10.29,209.0,12.04,14.32,47.59359,-54.27349
2022-06-16 15:24:00+00:00,212.0,9.31,213.0,11.43,14.32,47.59359,-54.27349
2022-06-16 15:34:00+00:00,209.0,11.07,214.0,12.98,14.32,47.59359,-54.27349
2022-06-16 15:44:00+00:00,210.0,11.76,213.0,13.03,14.32,47.59359,-54.27349
2022-06-16 15:54:00+00:00,213.0,9.42,213.0,10.61,14.32,47.59359,-54.27349
2022-06-16 16:04:00+00:00,209.0,11.27,211.0,12.48,14.32,47.59359,-54.27349
2022-06-16 16:14:00+00:00,209.0,10.44,205.0,11.84,14.32,47.59359,-54.27349
2022-06-16 16:24:00+00:00,208.0,10.8,208.0,12.11,14.32,47.59359,-54.27349
2022-06-16 16:34:00+00:00,205.0,10.84,206.0,12.86,14.32,47.59359,-54.27349
2022-06-16 16:44:00+00:00,201.0,9.99,200.0,11.14,14.32,47.59359,-54.27349
2022-06-16 16:54:00+00:00,205.0,10.63,206.0,11.92,14.32,47.59359,-54.27349
2022-06-16 17:04:00+00:00,207.0,11.19,207.0,12.35,14.32,47.59359,-54.27349
2022-06-16 17:14:00+00:00,206.0,11.03,208.0,12.33,14.24,47.59359,-54.27349
2022-06-16 17:24:00+00:00,202.0,11.24,204.0,12.57,14.24,47.59359,-54.27349
2022-06-16 17:34:00+00:00,204.0,10.68,202.0,11.9,14.24,47.59359,-54.27349
2022-06-16 17:44:00+00:00,204.0,10.0,209.0,11.22,14.24,47.59359,-54.27349
2022-06-16 17:54:00+00:00,204.0,9.7,205.0,11.13,14.24,47.59359,-54.27349
2022-06-16 18:04:00+00:00,204.0,10.12,202.0,11.4,14.24,47.59359,-54.27349
2022-06-16 18:14:00+00:00,213.0,12.18,212.0,13.61,13.76,47.59359,-54.27349
2022-06-16 18:24:00+00:00,215.0,11.85,213.0,14.33,13.76,47.59359,-54.27349
2022-06-16 18:34:00+00:00,214.0,12.04,215.0,13.75,13.76,47.59359,-54.27349
2022-06-16 18:44:00+00:00,215.0,11.11,215.0,12.54,13.76,47.59359,-54.27349
2022-06-16 18:54:00+00:00,214.0,11.27,212.0,12.67,13.76,47.59359,-54.27349
2022-06-16 19:04:00+00:00,213.0,12.48,218.0,13.97,13.76,47.59359,-54.27349
2022-06-16 19:14:01+00:00,212.0,12.27,216.0,14.31,13.76,47.59359,-54.27349
2022-06-16 19:24:01+00:00,208.0,10.41,208.0,12.1,13.76,47.59359,-54.27349
2022-06-16 19:34:01+00:00,212.0,10.75,212.0,12.18,13.76,47.59359,-54.27349
2022-06-16 19:44:01+00:00,211.0,11.2,218.0,13.22,13.76,47.59359,-54.27349
2022-06-16 19:54:01+00:00,213.0,11.09,212.0,12.42,13.76,47.59359,-54.27349
2022-06-16 20:04:01+00:00,212.0,10.85,213.0,12.67,13.76,47.59359,-54.27349
2022-06-16 20:14:00+00:00,207.0,10.44,205.0,12.48,13.68,47.59359,-54.27349
2022-06-16 20:24:00+00:00,214.0,11.37,210.0,13.02,13.68,47.59359,-54.27349
2022-06-16 20:34:00+00:00,207.0,10.56,210.0,11.77,13.68,47.59359,-54.27349
2022-06-16 20:44:00+00:00,212.0,11.45,212.0,12.96,13.68,47.59359,-54.27349
2022-06-16 20:54:00+00:00,211.0,11.15,213.0,13.22,13.68,47.59359,-54.27349
2022-06-16 21:04:00+00:00,212.0,11.38,215.0,13.2,13.68,47.59359,-54.27349
2022-06-16 21:14:00+00:00,212.0,11.91,212.0,13.25,13.44,47.59359,-54.27349
2022-06-16 21:24:00+00:00,210.0,13.11,208.0,14.89,13.44,47.59359,-54.27349
2022-06-16 21:34:00+00:00,210.0,11.7,210.0,13.13,13.44,47.59359,-54.27349
2022-06-16 21:44:00+00:00,210.0,10.91,212.0,13.03,13.44,47.59359,-54.27349
2022-06-16 21:54:00+00:00,211.0,11.36,216.0,12.9,13.44,47.59359,-54.27349
2022-06-16 22:04:00+00:00,206.0,12.47,209.0,13.71,13.44,47.59359,-54.27349
2022-06-16 22:14:00+00:00,206.0,11.57,210.0,13.28,13.44,47.59359,-54.27349
2022-06-16 22:24:00+00:00,205.0,11.01,212.0,12.9,13.44,47.59359,-54.27349
2022-06-16 22:34:00+00:00,215.0,11.27,214.0,12.27,13.44,47.59359,-54.27349
2022-06-16 22:44:00+00:00,216.0,11.11,216.0,12.84,13.44,47.59359,-54.27349
2022-06-16 22:54:00+00:00,214.0,10.56,217.0,12.27,13.44,47.59359,-54.27349
2022-06-16 23:04:00+00:00,219.0,11.1,222.0,12.85,13.44,47.59359,-54.27349
2022-06-16 23:14:00+00:00,218.0,9.18,227.0,11.63,13.05,47.59359,-54.27349
2022-06-16 23:24:00+00:00,214.0,8.61,232.0,11.53,13.05,47.59359,-54.27349
2022-06-16 23:34:00+00:00,208.0,10.12,216.0,11.28,13.05,47.59359,-54.27349
2022-06-16 23:44:00+00:00,208.0,10.79,212.0,13.03,13.05,47.59359,-54.27349
2022-06-16 23:54:00+00:00,204.0,9.45,202.0,10.98,13.05,47.59359,-54.27349
